User: anonymous   Login
Location: Unspecified
(0.0000°N, 0.0000°E)
Time: 01:14:38
(UTC+01:00)
Language:

Iridium 4 Rocket - Orbit

View from above orbital plane
View from above orbital plane
View from above satellite
View from above satellite

Ground track
Ground track

The orbit data is extracted from the following two-line orbital elements,

1 24797U 97020F   15032.20934962  .00000974  00000-0  20693-3 0  8838
2 24797 086.8991 310.7508 0225403 327.5432 197.8613 14.43438404932855
Epoch (UTC): 01 February 2015 05:01:27
Eccentricity: 0.0225403
inclination: 86.8991°
perigee height: 586 km
apogee height: 908 km
right ascension of ascending node: 310.7508°
argument of perigee: 327.5432°
revolutions per day: 14.43438404
mean anomaly at epoch: 197.8613°
orbit number at epoch: 93285

The dashed part of the orbit path shows where the satellite is in the earth's shadow,  

DLR